When you browse on this site, cookies collect data to enhance your experience and personalize the content and advertising you see.
Visit our Privacy Policy to learn more. By continuing to use the site, you agree to this use of cookies and data.
  • In Hungary
  • List of Countries
  • For 7 days
  • Water Temperature
  • Weather Map
  • News
  • Weather Widgets
  • user-avatar
    Login

    Hourly Weather Sulem

    Today, 19 January, Sunday

    Time Temperature Precipitation Wind Pressure Humidity
    00:00 -9°C° 0 mm 1 mps 743 mmHg 93%
    01:00 -11°C° 0 mm 1 mps 743 mmHg 94%
    02:00 -12°C° 0 mm 1 mps 744 mmHg 92%
    03:00 -12°C° 0 mm 1 mps 744 mmHg 91%
    04:00 -13°C° 0 mm 1 mps 745 mmHg 90%
    05:00 -13°C° 0 mm 1 mps 745 mmHg 89%
    06:00 -14°C° 0 mm 0 mps 745 mmHg 88%
    07:00 -14°C° 0 mm 0 mps 744 mmHg 86%
    08:00 -13°C° 0 mm 0 mps 745 mmHg 84%
    09:00 -12°C° 0 mm 0 mps 745 mmHg 82%
    10:00 -11°C° 0 mm 0 mps 745 mmHg 79%
    11:00 -10°C° 0 mm 1 mps 745 mmHg 79%
    12:00 -9°C° 0 mm 1 mps 744 mmHg 79%
    13:00 -8°C° 0 mm 1 mps 744 mmHg 79%
    14:00 -8°C° 0.2 mm 1 mps 744 mmHg 84%
    15:00 -8°C° 0.2 mm 1 mps 743 mmHg 90%
    16:00 -8°C° 0.2 mm 1 mps 743 mmHg 95%
    17:00 -7°C° 0.4 mm 1 mps 743 mmHg 95%
    18:00 -8°C° 0.4 mm 2 mps 743 mmHg 95%
    19:00 -8°C° 0.4 mm 2 mps 742 mmHg 95%
    20:00 -7°C° 0.4 mm 2 mps 742 mmHg 95%
    21:00 -7°C° 0.4 mm 2 mps 742 mmHg 96%
    22:00 -6°C° 0.4 mm 1 mps 741 mmHg 96%
    23:00 -6°C° 0.4 mm 1 mps 741 mmHg 96%

    Tomorrow, 20 January, Monday

    Time Temperature Precipitation Wind Pressure Humidity
    00:00 -4°C° 0.4 mm 1 mps 740 mmHg 96%
    01:00 -4°C° 0.4 mm 1 mps 740 mmHg 96%
    02:00 -4°C° 0.4 mm 1 mps 740 mmHg 96%
    03:00 -4°C° 0.4 mm 1 mps 740 mmHg 96%
    04:00 -4°C° 0.4 mm 1 mps 740 mmHg 96%
    05:00 -4°C° 0.5 mm 1 mps 739 mmHg 96%
    06:00 -6°C° 0.5 mm 1 mps 739 mmHg 96%
    07:00 -6°C° 0.5 mm 1 mps 738 mmHg 96%
    08:00 -6°C° 0.4 mm 1 mps 738 mmHg 95%
    09:00 -8°C° 0.4 mm 2 mps 738 mmHg 95%
    10:00 -8°C° 0.4 mm 2 mps 738 mmHg 94%
    11:00 -9°C° 0.1 mm 2 mps 738 mmHg 93%
    12:00 -9°C° 0.1 mm 2 mps 738 mmHg 92%
    13:00 -10°C° 0.1 mm 2 mps 738 mmHg 91%
    14:00 -12°C° 0 mm 2 mps 738 mmHg 92%
    15:00 -13°C° 0 mm 2 mps 738 mmHg 93%
    16:00 -13°C° 0 mm 2 mps 738 mmHg 94%
    17:00 -14°C° 0 mm 2 mps 738 mmHg 95%
    18:00 -15°C° 0 mm 2 mps 738 mmHg 95%
    19:00 -16°C° 0 mm 2 mps 738 mmHg 96%
    20:00 -17°C° 0 mm 2 mps 739 mmHg 96%
    21:00 -17°C° 0 mm 2 mps 739 mmHg 96%
    22:00 -17°C° 0 mm 2 mps 739 mmHg 96%
    23:00 -16°C° 0 mm 1 mps 738 mmHg 96%

    Day after tomorrow, 21 January, Tuesday

    Time Temperature Precipitation Wind Pressure Humidity
    00:00 -16°C° 0 mm 1 mps 738 mmHg 96%
    01:00 -17°C° 0 mm 1 mps 738 mmHg 97%
    02:00 -17°C° 0 mm 1 mps 738 mmHg 97%
    03:00 -17°C° 0 mm 1 mps 738 mmHg 97%
    04:00 -17°C° 0 mm 1 mps 738 mmHg 97%
    05:00 -17°C° 0 mm 1 mps 738 mmHg 97%
    06:00 -17°C° 0 mm 1 mps 738 mmHg 97%
    07:00 -17°C° 0 mm 1 mps 737 mmHg 97%
    08:00 -16°C° 0 mm 1 mps 737 mmHg 96%
    09:00 -15°C° 0 mm 1 mps 737 mmHg 95%
    10:00 -16°C° 0 mm 2 mps 737 mmHg 94%
    11:00 -15°C° 0 mm 2 mps 736 mmHg 92%
    12:00 -13°C° 0 mm 2 mps 736 mmHg 91%
    13:00 -12°C° 0 mm 2 mps 735 mmHg 89%
    14:00 -13°C° 0 mm 2 mps 735 mmHg 91%
    15:00 -13°C° 0 mm 2 mps 734 mmHg 93%
    16:00 -14°C° 0 mm 2 mps 734 mmHg 95%
    17:00 -14°C° 0 mm 2 mps 733 mmHg 95%
    18:00 -15°C° 0 mm 3 mps 732 mmHg 95%
    19:00 -15°C° 0 mm 3 mps 731 mmHg 95%
    20:00 -14°C° 0 mm 3 mps 731 mmHg 95%
    21:00 -13°C° 0 mm 3 mps 730 mmHg 94%
    22:00 -13°C° 0 mm 3 mps 729 mmHg 94%
    23:00 -12°C° 0 mm 4 mps 728 mmHg 94%

    22 January, Wednesday

    Time Temperature Precipitation Wind Pressure Humidity
    00:00 -12°C° 0 mm 4 mps 727 mmHg 93%
    01:00 -11°C° 0 mm 4 mps 726 mmHg 93%
    02:00 -12°C° 0.1 mm 5 mps 725 mmHg 93%
    03:00 -11°C° 0.1 mm 5 mps 724 mmHg 92%
    04:00 -10°C° 0.1 mm 5 mps 723 mmHg 92%
    05:00 -10°C° 0.2 mm 5 mps 722 mmHg 92%
    06:00 -10°C° 0.2 mm 5 mps 721 mmHg 92%
    07:00 -10°C° 0.2 mm 5 mps 720 mmHg 92%
    08:00 -10°C° 0.2 mm 5 mps 719 mmHg 92%
    09:00 -10°C° 0.2 mm 5 mps 719 mmHg 91%
    10:00 -8°C° 0.2 mm 5 mps 718 mmHg 91%
    11:00 -8°C° 0.1 mm 4 mps 718 mmHg 91%
    12:00 -7°C° 0.1 mm 4 mps 717 mmHg 91%
    13:00 -7°C° 0.1 mm 4 mps 717 mmHg 92%
    14:00 -6°C° 0.1 mm 3 mps 717 mmHg 93%
    15:00 -6°C° 0.1 mm 3 mps 716 mmHg 94%
    16:00 -6°C° 0.1 mm 3 mps 716 mmHg 95%
    17:00 -5°C° 0.1 mm 2 mps 716 mmHg 95%
    18:00 -5°C° 0.1 mm 2 mps 716 mmHg 96%
    19:00 -5°C° 0.1 mm 2 mps 716 mmHg 96%
    20:00 -4°C° 0.1 mm 1 mps 716 mmHg 97%
    21:00 -4°C° 0.1 mm 1 mps 716 mmHg 97%
    22:00 -6°C° 0.1 mm 1 mps 716 mmHg 97%
    23:00 -6°C° 0.2 mm 1 mps 716 mmHg 97%

    23 January, Thursday

    Time Temperature Precipitation Wind Pressure Humidity
    00:00 -6°C° 0.2 mm 1 mps 715 mmHg 97%
    01:00 -6°C° 0.2 mm 1 mps 715 mmHg 96%
    02:00 -7°C° 0.1 mm 1 mps 715 mmHg 96%
    03:00 -7°C° 0.1 mm 1 mps 716 mmHg 96%
    04:00 -7°C° 0.1 mm 1 mps 716 mmHg 96%
    05:00 -9°C° 0.1 mm 2 mps 716 mmHg 96%
    06:00 -9°C° 0.1 mm 2 mps 717 mmHg 95%
    07:00 -10°C° 0.1 mm 3 mps 717 mmHg 95%
    08:00 -10°C° 0 mm 3 mps 718 mmHg 94%
    09:00 -12°C° 0 mm 3 mps 718 mmHg 93%
    10:00 -12°C° 0 mm 4 mps 719 mmHg 92%
    11:00 -12°C° 0 mm 4 mps 719 mmHg 91%
    12:00 -11°C° 0 mm 4 mps 720 mmHg 90%
    13:00 -11°C° 0 mm 4 mps 721 mmHg 89%
    14:00 -11°C° 0 mm 4 mps 721 mmHg 90%
    15:00 -12°C° 0 mm 4 mps 722 mmHg 91%
    16:00 -12°C° 0 mm 4 mps 722 mmHg 92%
    17:00 -14°C° 0 mm 4 mps 723 mmHg 92%
    18:00 -14°C° 0 mm 3 mps 723 mmHg 93%
    19:00 -14°C° 0 mm 3 mps 724 mmHg 93%
    20:00 -14°C° 0 mm 3 mps 724 mmHg 94%
    21:00 -15°C° 0 mm 3 mps 725 mmHg 94%
    22:00 -15°C° 0 mm 3 mps 725 mmHg 94%
    23:00 -15°C° 0 mm 3 mps 726 mmHg 94%

    24 January, Friday

    Time Temperature Precipitation Wind Pressure Humidity
    00:00 -15°C° 0 mm 3 mps 726 mmHg 94%
    01:00 -16°C° 0 mm 3 mps 727 mmHg 94%
    02:00 -16°C° 0 mm 3 mps 727 mmHg 94%
    03:00 -17°C° 0 mm 4 mps 727 mmHg 94%
    04:00 -17°C° 0 mm 4 mps 728 mmHg 93%
    05:00 -17°C° 0 mm 4 mps 728 mmHg 94%
    06:00 -17°C° 0 mm 4 mps 728 mmHg 94%
    07:00 -18°C° 0 mm 4 mps 728 mmHg 94%
    08:00 -17°C° 0 mm 4 mps 729 mmHg 93%
    09:00 -17°C° 0 mm 4 mps 729 mmHg 92%
    10:00 -17°C° 0 mm 4 mps 729 mmHg 91%
    11:00 -17°C° 0 mm 4 mps 729 mmHg 91%
    12:00 -16°C° 0 mm 4 mps 729 mmHg 91%
    13:00 -16°C° 0 mm 4 mps 730 mmHg 91%
    14:00 -16°C° 0 mm 4 mps 730 mmHg 91%
    15:00 -15°C° 0 mm 3 mps 730 mmHg 92%
    16:00 -15°C° 0 mm 3 mps 730 mmHg 92%
    17:00 -15°C° 0 mm 3 mps 731 mmHg 93%
    18:00 -15°C° 0 mm 3 mps 731 mmHg 93%
    19:00 -15°C° 0 mm 3 mps 731 mmHg 94%
    20:00 -16°C° 0 mm 3 mps 731 mmHg 94%
    21:00 -16°C° 0 mm 3 mps 731 mmHg 95%
    22:00 -17°C° 0 mm 3 mps 732 mmHg 95%
    23:00 -17°C° 0 mm 3 mps 732 mmHg 95%
    Show more